Temp
19 17 15 16 17 17 17 16 16 16 16 16 16 15 15 15 15 15 15 15 15 14 14 15 15 14 14 15 14 14 14 14 15 15 15 15 15 16 15 15 14 13 13
20 18 17 16 16 17 16 15 16 16 16 15 15 15 15 15 15 15 15 14 15 14 13 14 14 14 14 14 14 13 14 14 14 15 15 15 15 15 15 14 14 13 13
20 19 18 18 17 17 17 17 17 16 15 15 15 13 15 14 15 15 15 15 15 14 13 14 14 14 14 14 14 14 14 14 14 14 14 14 14 14 14 14 13 12 12
20 19 19 18 18 18 18 17 17 17 17 15 15 15 14 14 15 15 15 15 15 13 14 14 14 14 14 14 14 14 14 13 14 13 13 13 13 13 13 13 13 13 13
20 20 20 19 18 18 18 18 18 18 17 17 15 14 14 14 15 15 15 15 15 14 14 14 14 14 14 14 14 14 13 13 13 12 12 12 12 12 13 13 13 13 13
20 20 20 19 18 18 18 18 18 18 17 15 14 14 14 15 15 15 15 15 15 15 15 15 15 15 14 14 14 13 13 12 12 12 12 12 12 13 12 13 13 13 13
19 19 20 18 17 17 18 19 19 19 17 14 14 14 15 15 15 15 15 15 15 15 15 15 14 14 14 14 13 13 13 13 12 12 12 12 12 12 12 13 13 13 13
19 19 19 18 17 17 17 19 18 18 18 16 16 15 16 16 16 15 15 15 15 15 14 14 14 14 13 13 13 13 13 13 13 12 12 12 12 12 12 13 12 12 13
18 18 18 18 17 17 17 18 18 17 18 17 17 16 16 16 16 15 15 15 15 14 14 14 14 13 13 13 13 14 13 13 13 13 12 12 12 12 12 12 11 11 12
17 18 18 18 17 17 17 17 17 18 17 17 16 16 15 15 15 15 15 15 15 14 14 13 13 13 13 13 13 13 13 13 13 13 12 12 12 12 11 11 11 11 10
17 17 17 17 17 17 17 17 16 17 16 16 16 15 15 15 15 15 15 15 15 14 14 13 13 13 13 13 13 13 13 12 12 12 12 12 11 11 11 11 10 10 10
17 17 17 17 17 17 16 16 16 16 16 16 15 15 15 15 15 15 14 14 14 14 14 13 13 13 13 13 13 13 12 12 12 12 11 11 10 10 9 9 9 8 9
18 17 17 17 17 16 16 16 16 16 16 16 16 15 15 15 14 14 14 14 14 14 14 13 13 13 13 13 13 13 13 13 12 12 11 10 9 9 8 9 9 9 9
19 19 18 17 17 17 16 16 17 17 17 16 16 15 15 15 14 14 14 14 14 13 13 13 13 13 13 12 13 13 13 13 12 11 11 10 9 9 9 9 9 9 9
18 18 18 18 18 17 17 16 16 16 16 17 17 16 15 15 15 14 14 14 13 13 13 13 13 12 12 12 13 13 13 13 12 11 11 10 10 9 9 9 9 9 9
18 18 18 18 18 17 17 17 16 16 16 16 16 16 16 15 15 14 13 13 13 13 12 12 12 12 12 12 12 12 12 12 11 11 10 10 9 9 9 9 9 9 9
18 18 18 18 18 18 17 17 16 16 16 16 16 15 16 15 15 14 13 13 13 12 12 12 12 12 12 12 12 12 12 12 11 10 10 9 9 9 8 8 8 8 8
18 18 18 18 17 17 17 17 17 17 16 16 15 15 15 14 14 13 13 13 12 12 12 12 12 11 11 12 12 12 12 11 11 10 9 9 8 8 8 8 8 8 7
19 19 18 18 18 17 17 17 17 17 17 17 16 15 15 14 14 13 13 13 12 12 12 12 11 11 11 12 12 11 11 11 10 10 9 9 8 8 8 7 7 7 7
19 19 19 18 18 18 17 17 17 17 16 16 16 15 15 14 14 13 13 13 12 12 12 12 11 11 12 12 11 11 11 10 10 9 8 8 7 7 7 7 7 7 7
18 18 19 18 18 18 18 17 17 17 16 16 16 16 15 14 14 13 13 12 12 12 12 11 12 11 11 11 11 11 10 9 9 8 8 7 7 7 7 7 7 6 6
17 17 18 18 18 18 18 18 17 17 16 16 16 16 15 15 14 14 13 13 13 13 12 12 12 11 11 11 11 10 10 9 9 8 8 7 7 6 6 6 6 6 6
17 17 17 17 18 18 18 18 17 17 16 16 16 16 15 15 14 15 14 13 13 13 13 13 13 13 12 12 11 11 10 10 9 8 8 7 7 6 6 5 5 5 5
17 17 17 17 17 17 17 17 17 17 17 16 16 16 16 16 15 15 14 14 14 13 13 12 13 13 12 12 11 11 11 10 10 9 7 7 7 6 6 5 5 5 5
16 16 16 16 17 17 17 16 17 16 17 17 17 16 16 16 15 15 15 15 14 14 13 13 12 12 11 11 11 11 10 10 9 9 8 7 6 6 5 5 5 4 4
17 17 17 16 16 16 17 16 16 16 16 16 16 16 16 16 15 15 15 14 14 14 13 12 12 11 11 11 10 11 10 10 9 9 8 7 6 6 5 5 5 4 4
Height
1505 1507 1510 1512 1514 1516 1518 1519 1521 1522 1523 1524 1525 1526 1527 1528 1529 1529 1529 1529 1529 1530 1530 1531 1532 1533 1534 1536 1537 1537 1538 1538 1538 1538 1538 1538 1537 1537 1536 1535 1535 1535 1535
1504 1507 1510 1513 1514 1516 1519 1520 1522 1523 1524 1524 1525 1526 1527 1527 1528 1528 1527 1528 1529 1530 1532 1532 1533 1534 1536 1537 1538 1538 1538 1538 1538 1538 1538 1538 1538 1537 1536 1536 1536 1537 1537
1505 1507 1510 1513 1515 1517 1519 1520 1522 1523 1524 1524 1525 1526 1527 1528 1528 1528 1528 1528 1529 1531 1533 1534 1535 1536 1537 1538 1538 1538 1538 1538 1538 1538 1538 1538 1538 1538 1537 1537 1538 1538 1538
1506 1508 1510 1513 1516 1518 1520 1521 1522 1523 1524 1525 1525 1526 1528 1529 1529 1529 1530 1530 1530 1532 1534 1535 1537 1538 1538 1539 1539 1538 1538 1539 1539 1539 1539 1539 1539 1538 1539 1539 1539 1539 1539
1506 1509 1511 1514 1516 1518 1520 1522 1522 1523 1524 1525 1526 1527 1529 1530 1531 1531 1532 1532 1533 1534 1536 1537 1538 1538 1539 1539 1539 1540 1540 1540 1540 1540 1540 1540 1540 1540 1541 1541 1541 1541 1540
1506 1509 1512 1514 1517 1519 1521 1522 1523 1524 1525 1526 1527 1528 1529 1531 1532 1532 1533 1534 1535 1536 1538 1538 1539 1539 1539 1540 1541 1541 1541 1541 1541 1541 1541 1541 1542 1543 1542 1542 1542 1541 1542
1506 1510 1513 1515 1517 1519 1521 1522 1523 1525 1526 1527 1528 1529 1530 1531 1532 1533 1534 1535 1536 1537 1538 1539 1540 1540 1541 1541 1541 1541 1541 1542 1542 1542 1542 1542 1543 1543 1542 1543 1543 1542 1542
1509 1511 1513 1516 1518 1520 1522 1523 1524 1525 1526 1527 1528 1529 1530 1531 1532 1534 1535 1536 1537 1538 1539 1540 1541 1541 1542 1542 1542 1542 1542 1542 1543 1542 1542 1543 1543 1543 1542 1542 1542 1542 1541
1510 1512 1514 1516 1519 1521 1522 1524 1524 1525 1526 1528 1529 1529 1530 1531 1533 1534 1535 1537 1537 1539 1540 1541 1541 1542 1542 1542 1542 1542 1543 1543 1543 1543 1543 1543 1542 1542 1542 1542 1542 1541 1540
1510 1513 1515 1516 1518 1520 1522 1523 1524 1524 1526 1528 1529 1530 1531 1532 1533 1534 1536 1537 1538 1539 1541 1541 1542 1542 1542 1543 1543 1543 1543 1544 1545 1543 1543 1543 1543 1542 1542 1542 1541 1541 1539
1509 1512 1514 1516 1518 1520 1522 1522 1523 1524 1526 1527 1528 1530 1531 1532 1533 1535 1536 1537 1538 1540 1540 1541 1541 1542 1542 1543 1543 1543 1543 1543 1544 1543 1544 1543 1543 1543 1541 1542 1541 1540 1540
1505 1509 1512 1514 1516 1518 1520 1521 1522 1523 1524 1526 1528 1529 1530 1532 1533 1535 1536 1537 1538 1539 1540 1540 1541 1542 1542 1542 1542 1542 1543 1542 1542 1543 1543 1542 1543 1542 1541 1541 1540 1540 1539
1502 1506 1508 1511 1513 1515 1517 1519 1521 1522 1523 1525 1526 1527 1529 1530 1532 1533 1535 1536 1537 1539 1539 1540 1541 1541 1541 1542 1542 1542 1541 1542 1541 1541 1541 1542 1541 1541 1540 1539 1539 1539 1539
1501 1503 1506 1508 1510 1512 1515 1516 1519 1520 1521 1523 1525 1526 1527 1528 1530 1532 1534 1535 1536 1538 1539 1539 1540 1540 1540 1540 1540 1540 1539 1539 1540 1540 1540 1540 1540 1539 1539 1538 1539 1539 1539
1500 1502 1504 1506 1507 1509 1511 1514 1516 1517 1518 1521 1522 1524 1525 1527 1529 1531 1533 1534 1535 1536 1538 1539 1539 1540 1540 1539 1539 1539 1538 1538 1538 1538 1538 1539 1538 1538 1538 1538 1538 1538 1538
1499 1500 1502 1503 1505 1507 1508 1510 1512 1514 1516 1518 1519 1520 1523 1525 1527 1530 1532 1533 1534 1536 1537 1538 1539 1538 1539 1538 1538 1538 1537 1537 1537 1537 1537 1537 1537 1537 1537 1537 1537 1537 1536
1495 1497 1498 1500 1502 1503 1505 1507 1509 1512 1514 1515 1516 1517 1519 1521 1524 1527 1530 1531 1533 1534 1536 1536 1537 1537 1537 1537 1536 1537 1536 1535 1535 1536 1536 1536 1536 1536 1536 1536 1535 1535 1535
1491 1492 1494 1496 1498 1500 1501 1503 1505 1508 1510 1511 1514 1514 1516 1519 1522 1524 1527 1529 1531 1532 1534 1535 1535 1536 1536 1535 1535 1534 1534 1533 1533 1534 1534 1535 1535 1535 1535 1534 1533 1533 1533
1486 1488 1490 1490 1492 1495 1497 1499 1502 1503 1505 1507 1511 1511 1513 1516 1518 1520 1523 1526 1528 1530 1531 1532 1533 1533 1533 1533 1533 1533 1532 1532 1531 1532 1532 1533 1533 1533 1534 1533 1532 1531 1531
1478 1480 1482 1485 1488 1490 1491 1494 1498 1498 1501 1503 1506 1507 1509 1511 1513 1516 1519 1522 1524 1527 1529 1529 1530 1530 1531 1531 1531 1530 1530 1530 1530 1531 1531 1531 1531 1531 1531 1530 1529 1529 1528
1469 1470 1473 1476 1480 1483 1483 1486 1490 1492 1493 1496 1499 1503 1504 1507 1509 1510 1514 1518 1521 1523 1525 1526 1527 1527 1527 1528 1529 1528 1528 1529 1529 1529 1529 1529 1529 1529 1528 1528 1527 1526 1525
1464 1465 1465 1468 1471 1474 1476 1479 1481 1486 1487 1490 1493 1496 1499 1500 1503 1505 1508 1512 1515 1518 1520 1521 1523 1523 1524 1524 1526 1526 1526 1528 1527 1527 1526 1526 1526 1526 1525 1524 1523 1522 1521
1456 1458 1461 1462 1464 1466 1469 1472 1473 1476 1480 1482 1486 1489 1491 1495 1497 1499 1503 1506 1508 1511 1514 1516 1518 1518 1519 1520 1521 1523 1522 1522 1523 1524 1524 1524 1524 1523 1523 1522 1520 1518 1516
1446 1451 1453 1456 1458 1461 1461 1462 1465 1467 1470 1474 1479 1482 1485 1489 1491 1493 1496 1499 1501 1505 1509 1511 1513 1513 1514 1515 1517 1517 1518 1518 1519 1521 1520 1520 1521 1520 1520 1519 1517 1514 1512
1440 1442 1446 1449 1451 1454 1455 1457 1460 1461 1464 1466 1470 1474 1477 1481 1485 1488 1490 1493 1495 1498 1501 1505 1506 1507 1510 1511 1512 1512 1513 1514 1515 1516 1516 1516 1517 1517 1517 1515 1513 1510 1508
1438 1439 1440 1442 1444 1447 1449 1450 1452 1455 1456 1458 1461 1464 1469 1473 1477 1480 1483 1485 1488 1492 1494 1497 1500 1502 1505 1507 1509 1508 1509 1509 1510 1511 1512 1512 1513 1512 1512 1511 1508 1505 1503
Wind_Speed
18 19 19 19 19 18 16 16 15 14 13 13 13 12 11 9 7 7 7 6 4 3 5 8 10 11 11 9 4 2 1 2 3 4 5 6 5 3 4 5 6 5 3
19 19 18 19 19 18 17 16 15 13 12 10 9 9 8 5 3 2 1 5 6 9 13 11 10 12 11 6 5 3 1 2 2 1 1 1 3 6 6 6 6 8 6
18 20 19 19 20 18 16 14 13 14 14 11 8 9 5 4 1 3 6 7 9 13 15 15 16 13 7 4 2 1 1 3 4 5 6 5 7 9 8 7 6 7 4
16 19 19 19 18 16 15 14 13 12 12 12 8 7 7 4 5 7 8 9 10 15 14 12 10 9 6 2 2 3 7 7 5 6 7 8 8 11 9 8 7 6 5
17 17 19 20 18 17 15 13 13 11 12 12 12 11 8 5 8 9 10 11 11 13 11 9 6 5 3 5 6 8 8 7 5 6 7 8 10 10 9 7 7 7 6
19 19 19 20 19 17 14 12 13 12 14 15 14 12 7 6 9 10 10 11 12 11 10 8 8 9 9 8 8 7 6 5 4 6 5 7 8 5 6 3 4 4 2
21 21 20 21 19 17 14 12 12 12 13 16 18 12 8 10 10 10 11 11 11 12 11 11 10 10 9 8 6 5 4 3 2 4 2 4 4 4 6 3 3 3 4
19 21 21 20 18 16 13 12 13 13 12 14 14 12 13 12 10 10 10 10 10 11 11 11 10 8 6 5 3 3 3 3 2 1 0 2 3 6 7 4 1 2 1
18 20 21 18 17 15 14 12 13 13 12 12 15 16 15 12 11 10 10 9 9 10 10 9 8 6 5 4 3 2 2 2 2 2 2 2 4 7 6 2 3 3 6
16 17 19 19 17 16 15 13 13 13 13 13 16 15 14 12 11 10 10 9 9 9 8 7 6 4 4 3 2 1 2 2 3 2 3 4 6 6 3 3 4 4 2
17 17 18 18 16 16 16 15 15 15 16 15 17 16 15 13 12 13 11 9 9 9 8 6 5 4 3 2 1 2 3 4 5 5 6 5 5 4 4 5 5 6 6
24 22 21 19 18 18 19 18 17 17 18 18 18 17 16 14 12 13 12 10 9 9 8 7 6 5 4 4 3 4 6 7 7 7 6 5 3 5 3 3 3 1 3
24 23 22 21 18 20 22 20 19 18 18 19 19 18 17 16 16 15 14 13 12 11 10 8 7 6 5 5 5 5 7 8 8 7 5 4 4 3 4 1 1 2 3
24 23 22 20 19 20 22 23 21 20 19 20 21 21 20 19 18 17 16 14 13 12 11 9 8 6 6 6 6 7 8 8 7 5 4 5 7 8 7 2 2 2 3
29 26 23 22 22 22 23 24 24 23 23 20 21 23 23 22 20 18 16 15 14 13 12 10 8 7 7 8 8 9 9 8 7 5 4 5 5 6 5 4 4 5 5
29 28 26 25 24 23 25 25 25 23 22 23 23 24 24 23 21 19 17 17 15 13 12 10 9 8 9 10 9 9 8 6 5 5 4 3 4 4 5 5 5 5 6
31 29 30 30 29 27 26 25 26 24 21 24 26 25 25 23 21 18 19 19 16 15 13 11 10 9 10 11 10 9 8 6 6 5 4 3 3 4 4 4 5 6 7
24 25 25 32 35 33 32 29 27 26 25 25 24 25 25 23 20 19 19 19 19 17 14 11 11 12 12 12 11 9 8 7 6 5 4 4 3 4 4 4 5 7 8
32 30 27 25 25 38 36 33 30 30 29 28 24 26 26 23 21 19 18 19 19 18 13 13 14 13 13 12 11 10 9 8 7 6 5 5 4 4 4 5 7 7 8
38 38 35 29 29 25 37 39 34 34 34 33 29 27 29 27 23 22 19 19 19 19 18 17 16 15 14 13 11 10 9 8 7 6 6 6 6 6 7 8 9 9 11
26 33 43 39 32 30 33 39 42 38 36 36 33 30 32 29 26 27 22 24 21 20 20 18 16 15 15 14 12 10 9 8 9 9 8 8 8 9 10 11 12 13 15
27 22 28 39 36 31 35 35 43 44 40 38 38 36 34 33 31 31 28 28 24 22 24 21 18 17 18 16 13 11 7 11 12 12 11 11 11 12 12 13 14 17 19
36 32 28 24 26 33 35 36 42 46 47 44 41 40 39 36 35 35 34 31 29 25 25 22 19 18 20 18 17 12 7 7 11 14 14 14 13 13 14 15 17 21 24
33 35 30 28 26 26 24 31 41 44 48 47 46 43 41 38 37 38 38 35 29 29 29 25 25 22 22 21 19 17 14 10 8 7 13 14 15 16 16 17 20 25 24
15 22 29 28 27 26 26 27 29 37 43 46 46 46 44 41 40 40 41 37 34 31 32 30 30 26 25 23 22 18 16 13 12 12 7 12 16 17 18 20 24 24 23
14 15 19 27 32 32 33 33 30 32 37 41 45 48 46 44 43 42 41 42 38 34 36 33 31 27 25 24 22 19 17 15 13 12 13 13 15 17 18 20 22 22 22
Wind_Direction
177 172 169 171 173 171 171 169 167 168 176 184 191 194 198 206 221 237 246 244 239 146 106 124 134 132 122 116 79 83 232 238 250 264 268 276 289 339 29 43 40 36 24
167 171 170 171 173 172 166 167 165 164 171 183 185 187 191 199 224 289 170 163 153 141 114 103 126 130 126 105 100 134 190 211 207 206 178 101 61 54 54 48 61 57 77
175 169 171 176 174 174 174 177 178 180 183 187 189 163 180 138 73 97 123 136 144 135 137 132 130 140 159 144 143 303 218 151 131 109 101 93 72 59 51 59 53 55 45
180 175 173 176 173 173 176 177 180 183 186 189 193 169 144 119 99 114 118 123 135 141 147 146 147 161 175 201 238 135 133 120 107 95 85 85 71 53 53 53 50 56 60
181 182 177 176 174 174 177 176 178 176 176 172 159 167 151 128 123 116 109 108 119 144 147 150 159 172 173 137 128 133 132 115 106 85 71 67 61 42 34 53 46 45 49
179 183 182 177 175 177 178 177 170 164 164 160 164 180 165 147 131 121 115 112 114 122 134 134 127 122 121 120 121 139 141 134 93 84 74 52 59 31 0 22 48 33 353
184 182 187 180 179 180 180 175 167 162 165 161 180 184 177 153 137 128 126 123 122 125 127 127 124 122 121 121 128 148 169 164 114 117 52 63 67 322 334 324 313 321 306
191 186 189 184 184 184 182 180 175 167 168 173 184 183 161 153 143 139 135 131 131 130 131 130 128 125 123 130 145 192 210 219 189 293 158 322 322 309 331 344 329 224 159
193 194 194 191 189 188 190 191 187 175 172 171 171 166 162 158 154 153 148 146 142 141 141 140 137 138 145 153 155 158 175 216 243 255 290 294 300 305 332 17 301 269 256
193 204 200 199 197 196 197 198 198 188 184 181 177 175 172 174 174 171 165 161 157 155 154 152 149 149 155 144 161 204 220 255 279 281 288 294 299 319 334 248 252 265 339
201 203 206 209 211 209 208 206 204 203 196 193 187 185 185 185 189 187 180 177 173 173 171 174 171 169 179 178 205 277 285 288 289 296 298 302 300 289 248 234 249 271 279
205 205 209 215 218 221 217 213 212 210 205 201 195 196 193 192 192 188 190 190 189 189 192 194 195 199 218 237 262 282 288 293 296 293 290 298 292 254 227 109 201 271 303
215 213 216 221 225 228 225 221 221 217 214 210 207 206 204 203 199 197 199 199 201 203 207 212 211 216 230 260 272 283 289 292 296 293 283 269 271 238 133 102 253 306 343
224 227 226 228 230 230 229 230 230 226 222 218 215 214 213 213 212 210 208 209 212 213 216 218 220 229 252 266 281 290 293 295 288 279 269 259 250 262 281 304 304 311 324
226 226 230 233 235 233 232 232 233 231 228 226 222 221 223 224 224 219 213 214 217 220 220 219 229 246 266 277 284 291 292 287 283 274 262 259 265 263 265 286 300 304 314
229 232 239 236 236 236 236 234 233 233 231 227 226 226 228 230 228 226 222 223 222 220 219 225 235 254 272 277 281 285 286 282 273 275 272 265 265 269 271 280 290 305 310
231 234 239 242 241 238 239 238 237 236 233 230 231 228 229 228 224 230 230 229 226 222 224 236 248 267 273 272 279 278 276 275 272 270 272 269 264 259 263 278 294 301 304
232 234 241 244 242 243 243 240 239 240 238 237 237 230 226 226 226 230 230 233 226 224 231 245 257 269 269 266 266 264 260 262 262 261 252 264 270 259 269 283 298 301 304
243 244 245 245 246 242 242 246 244 248 243 243 239 232 229 226 225 231 231 229 230 230 241 255 254 263 262 258 256 254 251 253 253 240 238 248 254 267 276 283 298 298 299
246 247 249 248 250 250 244 243 242 247 247 240 239 239 232 227 223 228 230 233 233 237 241 249 257 263 254 250 248 242 240 248 232 222 233 244 249 260 275 280 292 296 301
251 245 244 250 249 248 244 239 237 240 244 242 241 241 236 229 225 229 228 232 236 240 247 251 250 259 247 241 238 234 231 225 223 225 234 239 245 265 272 284 295 301 306
256 254 245 246 251 247 248 245 237 238 240 245 244 240 239 231 224 232 227 232 236 237 236 247 248 254 242 235 231 228 218 225 229 233 240 242 251 262 268 283 292 299 301
252 252 250 251 252 253 249 244 241 233 236 238 242 241 236 234 230 233 229 230 235 238 241 249 248 260 241 233 229 222 208 220 214 231 238 241 250 256 267 279 288 297 300
257 251 254 256 254 252 251 246 242 239 237 236 242 242 243 240 236 236 238 233 236 240 241 240 240 241 237 233 227 228 236 236 213 222 232 239 246 252 262 273 285 293 295
277 251 248 252 252 250 249 249 246 245 245 242 239 237 239 240 237 239 239 240 236 236 238 236 234 230 230 231 229 228 229 234 238 239 242 239 244 252 261 273 284 288 293
269 266 257 252 252 255 257 257 250 245 248 246 240 234 237 238 238 240 239 236 239 235 235 230 231 230 229 230 231 231 235 237 243 247 250 254 257 257 263 273 285 290 292